CZ-3A DEB, 40813

Orbit data source: Space-Track

CZ-3A DEB, 40813 is space debris in HEO originally from a launch on Fri, 02 Feb 2007 UTC launched from the Xichang Space Center, China (XSC). Debris objects in space refer to the collection of defunct objects orbiting the Earth. Examples of debris include non-operational satellites, rocket bodies, and fragments generated from explosions, collisions, or faulty payload assembly.

Loading next visibility...
Identifier
40813, 2007-003AS
Orbit
HEO
Country
Flag of CNCN / PRC
Related business
Manufacturer
Unknown
Mission
Spacecraft
Bus & Motor
Unknown
Mass
Unknown
Launch date (UTC)
2007-02-02 (19 years ago)
Launch vehicle
Unknown
Launch site
Xichang Space Center, China (XSC)
Object type
Payload
Rocket body
Debris
Shape & HBR
Unknown shape, 0.3 m
Radar Cross Section
Medium (>0.1 m² and <1 m²)

Expand to show TLE details & history
Last TLE update: 4 days ago

TLE from 4 days ago
0 CZ-3A DEB
1 40813U 07003AS  26168.99995069  .00000086  00000-0  38766-2 0  9991
2 40813  27.3386  57.2182 7647781 196.9115 105.0409  1.72502115 84481
Epoch: 2026-06-17T23:59Z
TLE epoch observation values (Epoch: 2026-06-17T23:59:55.739Z)
Latitude
0.00014°
Longitude
151.03458°
Altitude
39,055.484 km
Speed
1.993 km/s
True Right ascension
03h 49m 03s
True Declination
0° 00' 01"
Sunlit
Object was in daylight at epoch
Visualization orbit readout
Latitude
Unknown
Longitude
Unknown
Altitude
Unknown
Speed
Unknown
Apparent Right ascension
Unknown
Apparent Declination
Unknown
Sunlit
N/A
Visualization observer readout
Local Sidereal Time
21:42:43
Azimuth
Unknown
Elevation
Unknown
Doppler factor
Unknown
Orbital elements
Apogee altitude
45,456.407 km
Perigee altitude
530.732 km
Semi-major axis
29,371.706 km
Eccentricity
0.76478
Inclination
27.3386°
RAAN
57.2182°
Arg. of periapsis
196.9115°
True anomaly
163.07856°
Mean anomaly
105.0409°
Eccentric anomaly
135.6641°
Mean motion
0.43117 °/min
Orbital period
834.94 mins
BSTAR
0.0038766
Loading maneuver chart data...
Computing Atmospheric mass density...
Loading historical data...
Loading historical data...
Loading historical data...
Loading historical data...
Loading historical data...
Loading historical data...
Loading historical data...

Documentation

Showing up to 5 results
|